| time (UTC) | temp F | wind direction | speed knots | gust knots | rain 1hr in | rain 24hr in | rain mn in | humidity % | barometer mb |
| 20260904181824 | 78 | 207 | 0.9 | 2.6 | 0.63 | 1.43 | 1.27 | 84 | 1016.6 |
| 20260904181525 | 78 | 233 | 0.0 | 2.6 | 0.72 | 1.42 | 1.26 | 83 | 1016.6 |
| 20260904181328 | 78 | 238 | 0.9 | 4.3 | 0.88 | 1.42 | 1.26 | 82 | 1016.5 |
| 20260904180832 | 78 | 250 | 1.7 | 4.3 | 1.10 | 1.42 | 1.26 | 81 | 1016.3 |
| 20260904180318 | 79 | 269 | 1.7 | 4.3 | 1.10 | 1.42 | 1.26 | 82 | 1016.2 |
| 20260904180025 | 80 | 253 | 0.0 | 3.5 | 1.08 | 1.40 | 1.24 | 83 | 1016.3 |
| 20260904175857 | 81 | 253 | 0.9 | 3.5 | 1.07 | 1.39 | 1.23 | 85 | 1016.3 |
| 20260904175404 | 81 | 290 | 0.9 | 1.7 | 1.04 | 1.36 | 1.20 | 86 | 1016.6 |
| 20260904174846 | 81 | 127 | 0.0 | 1.7 | 0.90 | 1.22 | 1.06 | 85 | 1016.6 |
| 20260904174530 | 81 | 124 | 0.0 | 2.6 | 0.87 | 1.19 | 1.03 | 84 | 1016.5 |
| 20260904174326 | 82 | 124 | 0.0 | 2.6 | 0.83 | 1.15 | 0.99 | 85 | 1016.4 |
| 20260904173830 | 82 | 127 | 0.9 | 2.6 | 0.73 | 1.05 | 0.89 | 84 | 1016.3 |
| 20260904173335 | 82 | 5 | 0.0 | 5.2 | 0.63 | 0.95 | 0.79 | 83 | 1016.2 |
| 20260904173005 | 82 | 3 | 0.0 | 5.2 | 0.62 | 0.94 | 0.78 | 81 | 1016.3 |
| 20260904172815 | 83 | 359 | 1.7 | 5.2 | 0.61 | 0.93 | 0.77 | 80 | 1016.4 |
| 20260904172312 | 84 | 1 | 0.0 | 2.6 | 0.56 | 0.88 | 0.72 | 79 | 1016.5 |
| 20260904171836 | 86 | 66 | 0.9 | 2.6 | 0.47 | 0.79 | 0.63 | 78 | 1016.7 |
| 20260904171533 | 87 | 251 | 0.0 | 2.6 | 0.36 | 0.68 | 0.52 | 76 | 1017.0 |
| 20260904171317 | 88 | 58 | 0.9 | 2.6 | 0.22 | 0.54 | 0.38 | 75 | 1017.0 |
| 20260904170820 | 89 | 92 | 0.0 | 0.0 | 0.00 | 0.32 | 0.16 | 71 | 1016.6 |
| 20260904170339 | 89 | 92 | 0.0 | 0.0 | 0.00 | 0.32 | 0.16 | 71 | 1016.5 |
| 20260904170040 | 89 | 92 | 0.0 | 0.9 | 0.00 | 0.32 | 0.16 | 71 | 1016.6 |
| 20260904165850 | 89 | 92 | 0.0 | 0.9 | 0.00 | 0.32 | 0.16 | 71 | 1016.6 |
| 20260904165332 | 90 | 67 | 0.0 | 1.7 | 0.00 | 0.32 | 0.16 | 71 | 1016.6 |
| 20260904164815 | 89 | 343 | 0.9 | 3.5 | 0.00 | 0.32 | 0.16 | 72 | 1016.5 |
| 20260904164604 | 89 | 341 | 0.9 | 3.5 | 0.00 | 0.32 | 0.16 | 72 | 1016.6 |
| 20260904164320 | 89 | 14 | 0.9 | 3.5 | 0.00 | 0.32 | 0.16 | 75 | 1016.5 |
| 20260904163813 | 88 | 120 | 0.0 | 1.7 | 0.00 | 0.32 | 0.16 | 76 | 1016.6 |
| 20260904163312 | 87 | 335 | 0.0 | 1.7 | 0.06 | 0.32 | 0.16 | 77 | 1016.7 |
| 20260904163046 | 86 | 37 | 0.0 | 1.7 | 0.12 | 0.32 | 0.16 | 78 | 1016.6 |
| 20260904162824 | 86 | 352 | 0.0 | 1.7 | 0.15 | 0.32 | 0.16 | 78 | 1016.7 |
| 20260904162329 | 85 | 3 | 0.0 | 2.6 | 0.15 | 0.32 | 0.16 | 77 | 1016.9 |
| 20260904161832 | 86 | 18 | 0.0 | 2.6 | 0.15 | 0.32 | 0.16 | 79 | 1017.1 |
| 20260904161537 | 85 | 39 | 0.0 | 2.6 | 0.15 | 0.32 | 0.16 | 82 | 1017.2 |
| 20260904161337 | 85 | 352 | 0.0 | 0.0 | 0.15 | 0.32 | 0.16 | 83 | 1017.2 |
| 20260904160333 | 83 | 12 | 0.0 | 0.9 | 0.15 | 0.32 | 0.16 | 81 | 1017.2 |
| 20260904160104 | 83 | 46 | 0.0 | 0.9 | 0.15 | 0.32 | 0.16 | 82 | 1017.2 |
| 20260904155816 | 83 | 47 | 0.0 | 0.9 | 0.15 | 0.32 | 0.16 | 81 | 1017.4 |
| 20260904155320 | 83 | 72 | 0.0 | 0.9 | 0.15 | 0.32 | 0.16 | 80 | 1017.4 |
| 20260904154812 | 84 | 4 | 0.0 | 0.9 | 0.15 | 0.32 | 0.16 | 80 | 1017.3 |
| 20260904154513 | 83 | 322 | 0.0 | 0.9 | 0.15 | 0.32 | 0.16 | 81 | 1017.3 |
| 20260904154316 | 84 | 356 | 0.0 | 0.0 | 0.15 | 0.32 | 0.16 | 81 | 1017.2 |
| 20260904153821 | 84 | 20 | 0.0 | 7.8 | 0.15 | 0.32 | 0.16 | 78 | 1017.3 |
| 20260904153326 | 86 | 67 | 2.6 | 7.8 | 0.09 | 0.26 | 0.10 | 73 | 1017.3 |
| 20260904153011 | 87 | 86 | 0.9 | 2.6 | 0.02 | 0.19 | 0.03 | 73 | 1017.3 |
| 20260904152810 | 88 | 237 | 0.0 | 0.9 | 0.00 | 0.17 | 0.01 | 71 | 1017.2 |
| 20260904152312 | 88 | 330 | 0.0 | 0.9 | 0.00 | 0.17 | 0.01 | 71 | 1017.1 |
| 20260904151815 | 88 | 330 | 0.0 | 0.9 | 0.00 | 0.17 | 0.01 | 71 | 1017.0 |
| 20260904151528 | 87 | 333 | 0.0 | 1.7 | 0.00 | 0.17 | 0.01 | 70 | 1017.0 |
| 20260904151321 | 88 | 333 | 0.0 | 1.7 | 0.00 | 0.17 | 0.01 | 71 | 1017.1 |
| 20260904150826 | 87 | 338 | 0.0 | 0.9 | 0.00 | 0.17 | 0.01 | 71 | 1017.1 |
| 20260904150309 | 87 | 70 | 0.0 | 0.9 | 0.00 | 0.17 | 0.01 | 72 | 1017.0 |
| 20260904150017 | 86 | 70 | 0.0 | 0.0 | 0.00 | 0.17 | 0.01 | 71 | 1017.0 |
| 20260904145813 | 86 | 70 | 0.0 | 0.0 | 0.00 | 0.17 | 0.01 | 72 | 1016.9 |
| 20260904145318 | 86 | 70 | 0.0 | 0.0 | 0.00 | 0.17 | 0.01 | 72 | 1016.8 |
| 20260904144822 | 86 | 70 | 0.0 | 0.0 | 0.00 | 0.17 | 0.01 | 72 | 1016.8 |
| 20260904144514 | 85 | 70 | 0.0 | 0.0 | 0.00 | 0.17 | 0.01 | 74 | 1016.7 |
| 20260904144325 | 86 | 70 | 0.0 | 0.0 | 0.00 | 0.17 | 0.01 | 74 | 1016.7 |
| 20260904143810 | 85 | 70 | 0.0 | 0.9 | 0.00 | 0.17 | 0.01 | 75 | 1016.7 |
| 20260904143314 | 85 | 70 | 0.0 | 0.9 | 0.00 | 0.17 | 0.01 | 74 | 1016.7 |
| 20260904143010 | 84 | 70 | 0.0 | 0.0 | 0.00 | 0.17 | 0.01 | 75 | 1016.8 |
| 20260904142817 | 84 | 70 | 0.0 | 0.0 | 0.00 | 0.17 | 0.01 | 75 | 1016.7 |
| 20260904142321 | 84 | 70 | 0.0 | 0.0 | 0.00 | 0.17 | 0.01 | 76 | 1016.7 |
| 20260904141826 | 84 | 70 | 0.0 | 0.0 | 0.00 | 0.17 | 0.01 | 78 | 1016.7 |
| 20260904141514 | 83 | 70 | 0.0 | 0.0 | 0.00 | 0.17 | 0.01 | 77 | 1016.8 |
| 20260904141308 | 83 | 70 | 0.0 | 0.0 | 0.00 | 0.17 | 0.01 | 77 | 1016.8 |
| 20260904140812 | 83 | 71 | 0.0 | 0.0 | 0.00 | 0.17 | 0.01 | 78 | 1016.8 |
| 20260904140313 | 82 | 70 | 0.0 | 0.0 | 0.00 | 0.17 | 0.01 | 77 | 1016.8 |
| 20260904140011 | 82 | 70 | 0.0 | 0.0 | 0.00 | 0.17 | 0.01 | 78 | 1016.7 |
| 20260904135815 | 82 | 70 | 0.0 | 0.0 | 0.00 | 0.17 | 0.01 | 79 | 1016.7 |
| 20260904135314 | 82 | 70 | 0.0 | 0.9 | 0.00 | 0.17 | 0.01 | 78 | 1016.6 |
| 20260904134818 | 82 | 71 | 0.0 | 0.9 | 0.00 | 0.17 | 0.01 | 78 | 1016.7 |
| 20260904134601 | 81 | 70 | 0.0 | 0.0 | 0.00 | 0.17 | 0.01 | 79 | 1016.8 |
| 20260904134323 | 81 | 70 | 0.0 | 0.0 | 0.00 | 0.17 | 0.01 | 78 | 1016.5 |
| 20260904133856 | 81 | 70 | 0.0 | 0.9 | 0.00 | 0.17 | 0.01 | 78 | 1016.5 |
| 20260904133310 | 81 | 71 | 0.0 | 3.5 | 0.00 | 0.17 | 0.01 | 77 | 1016.6 |
| 20260904133031 | 81 | 71 | 0.0 | 4.3 | 0.00 | 0.17 | 0.01 | 77 | 1016.4 |
| 20260904132822 | 81 | 123 | 0.9 | 7.0 | 0.00 | 0.17 | 0.01 | 77 | 1016.6 |
| 20260904132308 | 81 | 94 | 2.6 | 10.4 | 0.00 | 0.17 | 0.01 | 78 | 1016.6 |
| 20260904131810 | 81 | 65 | 3.5 | 10.4 | 0.00 | 0.17 | 0.01 | 80 | 1016.8 |
| 20260904131509 | 81 | 68 | 1.7 | 10.4 | 0.00 | 0.17 | 0.01 | 85 | 1016.8 |
| 20260904131314 | 81 | 89 | 0.9 | 1.7 | 0.00 | 0.17 | 0.01 | 84 | 1016.8 |
| 20260904130817 | 81 | 91 | 0.0 | 0.0 | 0.00 | 0.17 | 0.01 | 86 | 1016.4 |
| 20260904130336 | 81 | 91 | 0.0 | 0.0 | 0.00 | 0.17 | 0.01 | 85 | 1016.3 |
| 20260904130055 | 80 | 91 | 0.0 | 0.0 | 0.00 | 0.17 | 0.01 | 86 | 1016.3 |
| 20260904125819 | 81 | 91 | 0.0 | 0.0 | 0.00 | 0.17 | 0.01 | 87 | 1016.5 |
| 20260904125315 | 81 | 91 | 0.0 | 0.0 | 0.00 | 0.17 | 0.01 | 87 | 1016.1 |
| 20260904124829 | 81 | 91 | 0.0 | 0.0 | 0.00 | 0.17 | 0.01 | 87 | 1016.0 |
| 20260904124535 | 80 | 91 | 0.0 | 0.0 | 0.00 | 0.17 | 0.01 | 87 | 1016.1 |
| 20260904124333 | 80 | 91 | 0.0 | 0.0 | 0.00 | 0.17 | 0.01 | 88 | 1016.2 |
| 20260904123838 | 80 | 91 | 0.0 | 0.9 | 0.00 | 0.17 | 0.01 | 88 | 1016.2 |
| 20260904123341 | 80 | 91 | 0.0 | 0.9 | 0.00 | 0.17 | 0.01 | 88 | 1016.1 |
| 20260904123046 | 80 | 91 | 0.0 | 1.7 | 0.00 | 0.17 | 0.01 | 88 | 1016.1 |
| 20260904122817 | 80 | 91 | 0.0 | 2.6 | 0.00 | 0.17 | 0.01 | 89 | 1016.0 |
| 20260904122344 | 80 | 91 | 0.0 | 2.6 | 0.00 | 0.17 | 0.01 | 89 | 1016.1 |
| 20260904121821 | 80 | 87 | 0.0 | 0.9 | 0.00 | 0.17 | 0.01 | 89 | 1016.2 |
| 20260904121543 | 79 | 128 | 0.0 | 0.0 | 0.00 | 0.17 | 0.01 | 90 | 1016.2 |
| 20260904121319 | 80 | 128 | 0.0 | 0.0 | 0.00 | 0.17 | 0.01 | 89 | 1016.0 |
| 20260904120819 | 80 | 128 | 0.0 | 0.0 | 0.00 | 0.17 | 0.01 | 89 | 1015.9 |
| 20260904120323 | 79 | 128 | 0.0 | 0.0 | 0.00 | 0.17 | 0.01 | 89 | 1015.9 |
| 20260904115843 | 79 | 128 | 0.0 | 0.0 | 0.00 | 0.17 | 0.01 | 89 | 1015.9 |
| 20260904115327 | 79 | 128 | 0.0 | 0.0 | 0.00 | 0.17 | 0.01 | 89 | 1016.0 |
| 20260904114830 | 79 | 128 | 0.0 | 0.0 | 0.00 | 0.17 | 0.01 | 89 | 1015.8 |
| 20260904114509 | 78 | 128 | 0.0 | 0.0 | 0.00 | 0.17 | 0.01 | 89 | 1015.8 |
| 20260904114313 | 79 | 128 | 0.0 | 0.0 | 0.00 | 0.17 | 0.01 | 89 | 1015.8 |
| 20260904113817 | 79 | 128 | 0.0 | 0.0 | 0.00 | 0.17 | 0.01 | 89 | 1015.7 |
| 20260904113322 | 79 | 128 | 0.0 | 0.0 | 0.00 | 0.17 | 0.01 | 89 | 1015.6 |
| 20260904113010 | 78 | 128 | 0.0 | 0.0 | 0.00 | 0.17 | 0.01 | 89 | 1015.5 |
| 20260904112826 | 79 | 128 | 0.0 | 0.0 | 0.00 | 0.17 | 0.01 | 89 | 1015.5 |
| 20260904112311 | 79 | 128 | 0.0 | 0.0 | 0.00 | 0.17 | 0.01 | 89 | 1015.5 |
| 20260904111815 | 79 | 128 | 0.0 | 0.0 | 0.00 | 0.17 | 0.01 | 89 | 1015.5 |
| 20260904111513 | 78 | 128 | 0.0 | 0.0 | 0.00 | 0.17 | 0.01 | 89 | 1015.5 |
| 20260904111319 | 79 | 128 | 0.0 | 0.0 | 0.00 | 0.17 | 0.01 | 89 | 1015.4 |
| 20260904110821 | 79 | 127 | 0.0 | 0.0 | 0.00 | 0.17 | 0.01 | 89 | 1015.4 |
| 20260904110325 | 79 | 127 | 0.0 | 0.0 | 0.00 | 0.17 | 0.01 | 89 | 1015.2 |
| 20260904110045 | 78 | 127 | 0.0 | 0.0 | 0.00 | 0.17 | 0.01 | 89 | 1015.3 |
| 20260904105857 | 79 | 127 | 0.0 | 0.0 | 0.00 | 0.17 | 0.01 | 89 | 1015.1 |
| 20260904105316 | 79 | 127 | 0.0 | 0.0 | 0.00 | 0.17 | 0.01 | 89 | 1015.1 |
| 20260904104809 | 79 | 127 | 0.0 | 0.0 | 0.00 | 0.17 | 0.01 | 89 | 1015.0 |
| 20260904104510 | 78 | 127 | 0.0 | 0.0 | 0.00 | 0.17 | 0.01 | 89 | 1015.0 |
| 20260904104313 | 79 | 127 | 0.0 | 0.0 | 0.00 | 0.17 | 0.01 | 89 | 1014.9 |
| 20260904103818 | 79 | 127 | 0.0 | 0.0 | 0.00 | 0.17 | 0.01 | 89 | 1014.9 |
| 20260904103342 | 79 | 127 | 0.0 | 0.0 | 0.00 | 0.17 | 0.01 | 89 | 1014.8 |
| 20260904103042 | 78 | 127 | 0.0 | 0.0 | 0.00 | 0.17 | 0.01 | 89 | 1014.8 |
| 20260904102818 | 79 | 127 | 0.0 | 0.0 | 0.00 | 0.17 | 0.01 | 89 | 1014.6 |
| 20260904102330 | 79 | 127 | 0.0 | 0.0 | 0.00 | 0.17 | 0.01 | 89 | 1014.7 |
| 20260904101834 | 79 | 127 | 0.0 | 0.0 | 0.00 | 0.17 | 0.01 | 89 | 1014.7 |
| 20260904101521 | 78 | 127 | 0.0 | 0.0 | 0.00 | 0.17 | 0.01 | 89 | 1014.6 |
| 20260904101318 | 79 | 127 | 0.0 | 0.0 | 0.00 | 0.17 | 0.01 | 89 | 1014.7 |
| 20260904100819 | 78 | 127 | 0.0 | 0.0 | 0.00 | 0.17 | 0.01 | 89 | 1014.5 |
| 20260904100318 | 78 | 127 | 0.0 | 0.0 | 0.01 | 0.17 | 0.01 | 89 | 1014.4 |
| 20260904100001 | 78 | 127 | 0.0 | 0.0 | 0.01 | 0.17 | 0.01 | 89 | 1014.4 |
| 20260904095822 | 78 | 127 | 0.0 | 0.0 | 0.01 | 0.17 | 0.01 | 89 | 1014.4 |
| 20260904095326 | 79 | 127 | 0.0 | 0.0 | 0.01 | 0.17 | 0.01 | 89 | 1014.4 |
| 20260904094809 | 79 | 127 | 0.0 | 0.0 | 0.01 | 0.17 | 0.01 | 89 | 1014.4 |
| 20260904094500 | 78 | 127 | 0.0 | 0.0 | 0.01 | 0.17 | 0.01 | 89 | 1014.4 |
| 20260904094312 | 79 | 127 | 0.0 | 0.0 | 0.01 | 0.17 | 0.01 | 89 | 1014.4 |
| 20260904093825 | 79 | 127 | 0.0 | 0.0 | 0.01 | 0.17 | 0.01 | 89 | 1014.2 |
| 20260904093328 | 79 | 127 | 0.0 | 0.0 | 0.01 | 0.17 | 0.01 | 89 | 1014.2 |
| 20260904093005 | 78 | 127 | 0.0 | 0.0 | 0.01 | 0.17 | 0.01 | 89 | 1014.2 |
| 20260904092811 | 79 | 127 | 0.0 | 0.0 | 0.01 | 0.17 | 0.01 | 89 | 1014.2 |
| 20260904092315 | 79 | 127 | 0.0 | 0.0 | 0.01 | 0.17 | 0.01 | 89 | 1014.2 |
| 20260904091839 | 79 | 127 | 0.0 | 0.0 | 0.01 | 0.17 | 0.01 | 88 | 1014.1 |
| 20260904091534 | 78 | 127 | 0.0 | 0.0 | 0.01 | 0.17 | 0.01 | 88 | 1014.2 |
| 20260904091344 | 79 | 127 | 0.0 | 0.0 | 0.01 | 0.17 | 0.01 | 88 | 1014.2 |
| 20260904090821 | 79 | 127 | 0.0 | 0.0 | 0.01 | 0.17 | 0.01 | 88 | 1014.2 |
| 20260904090314 | 79 | 127 | 0.0 | 0.0 | 0.00 | 0.16 | 0.00 | 88 | 1014.2 |
| 20260904090045 | 78 | 127 | 0.0 | 0.0 | 0.00 | 0.16 | 0.00 | 89 | 1014.2 |
| 20260904085847 | 79 | 127 | 0.0 | 0.0 | 0.00 | 0.16 | 0.00 | 88 | 1014.3 |
| 20260904085329 | 79 | 127 | 0.0 | 0.0 | 0.00 | 0.16 | 0.00 | 89 | 1014.2 |
| 20260904084814 | 79 | 127 | 0.0 | 0.0 | 0.00 | 0.16 | 0.00 | 88 | 1014.2 |
| 20260904084523 | 78 | 127 | 0.0 | 0.0 | 0.00 | 0.16 | 0.00 | 88 | 1014.1 |
| 20260904084318 | 79 | 127 | 0.0 | 0.0 | 0.00 | 0.16 | 0.00 | 88 | 1014.2 |
| 20260904083822 | 79 | 127 | 0.0 | 0.0 | 0.00 | 0.16 | 0.00 | 89 | 1014.3 |
| 20260904083326 | 78 | 127 | 0.0 | 0.0 | 0.00 | 0.16 | 0.00 | 88 | 1014.2 |
| 20260904083021 | 78 | 127 | 0.0 | 0.0 | 0.00 | 0.16 | 0.00 | 88 | 1014.2 |
| 20260904082830 | 78 | 127 | 0.0 | 0.0 | 0.00 | 0.16 | 0.00 | 88 | 1014.2 |
| 20260904082315 | 79 | 127 | 0.0 | 0.0 | 0.00 | 0.16 | 0.00 | 88 | 1014.2 |
| 20260904081818 | 79 | 127 | 0.0 | 0.0 | 0.00 | 0.16 | 0.00 | 88 | 1014.2 |
| 20260904081520 | 78 | 127 | 0.0 | 0.0 | 0.00 | 0.16 | 0.00 | 88 | 1014.1 |
| 20260904081340 | 79 | 127 | 0.0 | 0.0 | 0.00 | 0.16 | 0.00 | 88 | 1014.0 |
| 20260904080823 | 79 | 127 | 0.0 | 0.0 | 0.00 | 0.16 | 0.00 | 88 | 1014.1 |
| 20260904080321 | 79 | 127 | 0.0 | 0.0 | 0.00 | 0.16 | 0.00 | 88 | 1014.0 |
| 20260904080107 | 78 | 127 | 0.0 | 0.0 | 0.00 | 0.16 | 0.00 | 88 | 1014.0 |
| 20260904075851 | 78 | 127 | 0.0 | 0.0 | 0.00 | 0.16 | 0.00 | 88 | 1014.0 |
| 20260904075334 | 78 | 127 | 0.0 | 0.0 | 0.00 | 0.16 | 0.00 | 88 | 1013.9 |
| 20260904074838 | 78 | 127 | 0.0 | 0.0 | 0.00 | 0.16 | 0.00 | 88 | 1014.0 |
| 20260904074553 | 78 | 127 | 0.0 | 0.0 | 0.00 | 0.16 | 0.00 | 88 | 1014.0 |
| 20260904074314 | 79 | 127 | 0.0 | 0.0 | 0.00 | 0.16 | 0.00 | 88 | 1014.2 |
| 20260904073818 | 79 | 127 | 0.0 | 0.0 | 0.00 | 0.16 | 0.00 | 88 | 1014.1 |
| 20260904073323 | 79 | 127 | 0.0 | 0.0 | 0.00 | 0.16 | 0.00 | 88 | 1014.0 |
| 20260904073112 | 78 | 127 | 0.0 | 0.0 | 0.00 | 0.16 | 0.00 | 88 | 1013.9 |
| 20260904072819 | 79 | 127 | 0.0 | 0.0 | 0.00 | 0.16 | 0.00 | 87 | 1014.0 |
| 20260904072317 | 79 | 127 | 0.0 | 0.0 | 0.00 | 0.16 | 0.00 | 88 | 1014.0 |
| 20260904071843 | 79 | 127 | 0.0 | 0.0 | 0.00 | 0.16 | 0.00 | 88 | 1014.1 |
| 20260904071602 | 78 | 127 | 0.0 | 0.0 | 0.00 | 0.16 | 0.00 | 87 | 1014.0 |
| 20260904071320 | 79 | 127 | 0.0 | 0.0 | 0.00 | 0.16 | 0.00 | 87 | 1014.1 |
| 20260904070843 | 79 | 127 | 0.0 | 0.0 | 0.00 | 0.16 | 0.00 | 87 | 1014.1 |
| 20260904070328 | 79 | 127 | 0.0 | 0.0 | 0.00 | 0.16 | 0.00 | 87 | 1014.2 |
| 20260904070025 | 78 | 127 | 0.0 | 0.0 | 0.00 | 0.16 | 0.00 | 87 | 1014.3 |
| 20260904065812 | 79 | 127 | 0.0 | 0.0 | 0.00 | 0.16 | 0.00 | 87 | 1014.2 |
| 20260904065316 | 79 | 127 | 0.0 | 0.0 | 0.00 | 0.16 | 0.00 | 87 | 1014.2 |
| 20260904064819 | 79 | 127 | 0.0 | 0.0 | 0.00 | 0.16 | 0.00 | 87 | 1014.1 |
| 20260904064520 | 78 | 127 | 0.0 | 0.0 | 0.00 | 0.16 | 0.00 | 87 | 1014.2 |
| 20260904064344 | 79 | 127 | 0.0 | 0.0 | 0.00 | 0.16 | 0.00 | 87 | 1014.2 |
| 20260904063849 | 79 | 127 | 0.0 | 0.0 | 0.00 | 0.16 | 0.00 | 87 | 1014.2 |
| 20260904063331 | 79 | 127 | 0.0 | 0.0 | 0.00 | 0.16 | 0.00 | 87 | 1014.3 |
| 20260904063006 | 78 | 127 | 0.0 | 0.0 | 0.00 | 0.16 | 0.00 | 87 | 1014.3 |
| 20260904062814 | 79 | 127 | 0.0 | 0.0 | 0.00 | 0.16 | 0.00 | 86 | 1014.3 |
| 20260904062318 | 79 | 127 | 0.0 | 0.0 | 0.00 | 0.16 | 0.00 | 87 | 1014.4 |
| 20260904061822 | 79 | 127 | 0.0 | 0.0 | 0.00 | 0.16 | 0.00 | 86 | 1014.4 |
| 20260904061507 | 79 | 127 | 0.0 | 0.0 | 0.00 | 0.16 | 0.00 | 86 | 1014.5 |
| 20260904061322 | 79 | 127 | 0.0 | 0.0 | 0.00 | 0.16 | 0.00 | 86 | 1014.5 |
| 20260904060826 | 79 | 127 | 0.0 | 0.0 | 0.00 | 0.16 | 0.00 | 86 | 1014.4 |
| 20260904060310 | 79 | 127 | 0.0 | 0.0 | 0.00 | 0.16 | 0.00 | 86 | 1014.5 |
| 20260904060006 | 79 | 127 | 0.0 | 0.0 | 0.00 | 0.16 | 0.00 | 86 | 1014.6 |
| 20260904055813 | 80 | 127 | 0.0 | 0.0 | 0.00 | 0.16 | 0.00 | 86 | 1014.6 |
| 20260904054824 | 80 | 127 | 0.0 | 0.0 | 0.00 | 0.16 | 0.00 | 86 | 1014.7 |
| 20260904054553 | 79 | 127 | 0.0 | 0.0 | 0.00 | 0.16 | 0.00 | 86 | 1014.6 |
| 20260904054350 | 79 | 127 | 0.0 | 0.0 | 0.00 | 0.16 | 0.00 | 86 | 1014.6 |
| 20260904053834 | 79 | 127 | 0.0 | 0.0 | 0.00 | 0.16 | 0.00 | 86 | 1014.7 |
| 20260904053315 | 80 | 127 | 0.0 | 0.0 | 0.00 | 0.16 | 0.00 | 86 | 1014.9 |
| 20260904053002 | 79 | 127 | 0.0 | 0.0 | 0.00 | 0.16 | 0.00 | 86 | 1014.9 |
| 20260904052818 | 80 | 127 | 0.0 | 0.0 | 0.00 | 0.16 | 0.00 | 86 | 1014.9 |
| 20260904052323 | 80 | 127 | 0.0 | 0.0 | 0.00 | 0.16 | 0.00 | 86 | 1014.8 |
| 20260904051819 | 79 | 127 | 0.0 | 0.0 | 0.00 | 0.16 | 0.00 | 86 | 1014.9 |
| 20260904051551 | 79 | 127 | 0.0 | 0.0 | 0.00 | 0.16 | 0.00 | 86 | 1014.9 |
| 20260904051323 | 80 | 127 | 0.0 | 0.0 | 0.00 | 0.16 | 0.00 | 86 | 1014.8 |
| 20260904050821 | 80 | 127 | 0.0 | 0.0 | 0.00 | 0.16 | 0.00 | 86 | 1015.0 |
| 20260904050355 | 80 | 127 | 0.0 | 0.0 | 0.00 | 0.16 | 0.00 | 86 | 1015.1 |
| 20260904050028 | 79 | 127 | 0.0 | 0.0 | 0.00 | 0.16 | 0.00 | 86 | 1015.0 |
| 20260904045838 | 80 | 127 | 0.0 | 0.0 | 0.00 | 0.17 | 0.00 | 86 | 1015.1 |
| 20260904045323 | 80 | 127 | 0.0 | 0.0 | 0.00 | 0.17 | 0.00 | 85 | 1015.1 |
| 20260904044820 | 80 | 127 | 0.0 | 0.0 | 0.00 | 0.17 | 0.00 | 85 | 1015.0 |
| 20260904044542 | 79 | 127 | 0.0 | 0.0 | 0.00 | 0.17 | 0.00 | 85 | 1015.1 |
| 20260904044317 | 80 | 127 | 0.0 | 0.0 | 0.00 | 0.17 | 0.00 | 85 | 1015.1 |
| 20260904043814 | 80 | 127 | 0.0 | 0.0 | 0.00 | 0.17 | 0.00 | 85 | 1015.1 |
| 20260904043339 | 80 | 127 | 0.0 | 0.0 | 0.00 | 0.17 | 0.00 | 85 | 1015.2 |
| 20260904043103 | 79 | 127 | 0.0 | 0.0 | 0.00 | 0.17 | 0.00 | 85 | 1015.2 |
| 20260904042824 | 80 | 127 | 0.0 | 0.0 | 0.00 | 0.17 | 0.00 | 84 | 1015.2 |
| 20260904042320 | 80 | 127 | 0.0 | 0.0 | 0.00 | 0.17 | 0.00 | 84 | 1015.1 |
| 20260904041836 | 80 | 127 | 0.0 | 0.0 | 0.00 | 0.17 | 0.00 | 84 | 1015.1 |
| 20260904041524 | 80 | 127 | 0.0 | 0.0 | 0.00 | 0.17 | 0.00 | 84 | 1015.1 |
| 20260904041335 | 80 | 127 | 0.0 | 0.0 | 0.00 | 0.17 | 0.00 | 84 | 1015.2 |
| 20260904040819 | 80 | 127 | 0.0 | 0.0 | 0.00 | 0.17 | 0.00 | 83 | 1015.2 |
| 20260904040344 | 80 | 127 | 0.0 | 0.0 | 0.00 | 0.17 | 0.00 | 84 | 1015.2 |
| 20260904040002 | 80 | 127 | 0.0 | 0.0 | 0.00 | 0.17 | 0.00 | 84 | 1015.4 |
| 20260904035826 | 80 | 127 | 0.0 | 0.0 | 0.00 | 0.17 | 0.17 | 84 | 1015.4 |
| 20260904035311 | 80 | 127 | 0.0 | 0.0 | 0.00 | 0.17 | 0.17 | 84 | 1015.4 |
| 20260904034814 | 80 | 127 | 0.0 | 0.0 | 0.00 | 0.17 | 0.17 | 83 | 1015.4 |
| 20260904034502 | 80 | 127 | 0.0 | 0.0 | 0.00 | 0.17 | 0.17 | 84 | 1015.3 |
| 20260904034317 | 80 | 127 | 0.0 | 0.0 | 0.00 | 0.17 | 0.17 | 84 | 1015.3 |
| 20260904033820 | 80 | 127 | 0.0 | 0.0 | 0.00 | 0.17 | 0.17 | 83 | 1015.4 |
| 20260904033324 | 80 | 127 | 0.0 | 0.0 | 0.00 | 0.17 | 0.17 | 83 | 1015.4 |
| 20260904033105 | 80 | 127 | 0.0 | 0.0 | 0.00 | 0.17 | 0.17 | 83 | 1015.5 |
| 20260904032828 | 80 | 127 | 0.0 | 0.0 | 0.00 | 0.17 | 0.17 | 82 | 1015.4 |
| 20260904032311 | 80 | 127 | 0.0 | 0.0 | 0.00 | 0.17 | 0.17 | 82 | 1015.5 |
| 20260904031815 | 80 | 127 | 0.0 | 0.0 | 0.00 | 0.17 | 0.17 | 82 | 1015.5 |
| 20260904031502 | 80 | 127 | 0.0 | 0.0 | 0.00 | 0.17 | 0.17 | 82 | 1015.5 |
| 20260904031319 | 81 | 127 | 0.0 | 0.0 | 0.00 | 0.17 | 0.17 | 82 | 1015.4 |
| 20260904030824 | 81 | 127 | 0.0 | 0.0 | 0.00 | 0.17 | 0.17 | 82 | 1015.4 |
| 20260904030316 | 81 | 127 | 0.0 | 0.0 | 0.00 | 0.17 | 0.17 | 82 | 1015.5 |
| 20260904030057 | 80 | 127 | 0.0 | 0.0 | 0.00 | 0.17 | 0.17 | 81 | 1015.5 |
| 20260904025819 | 81 | 127 | 0.0 | 0.0 | 0.00 | 0.17 | 0.17 | 81 | 1015.6 |
| 20260904025325 | 81 | 127 | 0.0 | 0.0 | 0.00 | 0.17 | 0.17 | 80 | 1015.6 |
| 20260904024830 | 81 | 127 | 0.0 | 0.0 | 0.00 | 0.17 | 0.17 | 80 | 1015.5 |
| 20260904024532 | 81 | 127 | 0.0 | 0.0 | 0.00 | 0.17 | 0.17 | 80 | 1015.6 |
| 20260904024333 | 82 | 127 | 0.0 | 0.0 | 0.00 | 0.17 | 0.17 | 80 | 1015.6 |
| 20260904023815 | 82 | 127 | 0.0 | 0.0 | 0.00 | 0.17 | 0.17 | 80 | 1015.5 |
| 20260904023319 | 82 | 127 | 0.0 | 0.0 | 0.00 | 0.17 | 0.17 | 79 | 1015.4 |
| 20260904023057 | 81 | 127 | 0.0 | 0.0 | 0.00 | 0.17 | 0.17 | 79 | 1015.4 |
| 20260904022818 | 82 | 127 | 0.0 | 0.0 | 0.00 | 0.17 | 0.17 | 79 | 1015.4 |
| 20260904022323 | 82 | 127 | 0.0 | 0.0 | 0.00 | 0.17 | 0.17 | 78 | 1015.4 |
| 20260904021829 | 82 | 127 | 0.0 | 0.0 | 0.00 | 0.17 | 0.17 | 78 | 1015.4 |
| 20260904021528 | 82 | 127 | 0.0 | 0.0 | 0.00 | 0.17 | 0.17 | 77 | 1015.3 |
| 20260904021334 | 82 | 127 | 0.0 | 0.0 | 0.00 | 0.17 | 0.17 | 78 | 1015.2 |
| 20260904020816 | 82 | 127 | 0.0 | 0.0 | 0.00 | 0.17 | 0.17 | 77 | 1015.3 |
| 20260904020316 | 83 | 127 | 0.0 | 0.9 | 0.00 | 0.17 | 0.17 | 77 | 1015.3 |
| 20260904020047 | 82 | 127 | 0.0 | 0.9 | 0.00 | 0.17 | 0.17 | 77 | 1015.4 |
| 20260904015842 | 83 | 127 | 0.0 | 0.9 | 0.00 | 0.17 | 0.17 | 77 | 1015.3 |
| 20260904015324 | 83 | 127 | 0.0 | 0.9 | 0.00 | 0.17 | 0.17 | 77 | 1015.3 |
| 20260904014829 | 83 | 127 | 0.0 | 0.9 | 0.00 | 0.17 | 0.17 | 76 | 1015.3 |
| 20260904014528 | 82 | 127 | 0.0 | 2.6 | 0.00 | 0.17 | 0.17 | 76 | 1015.3 |
| 20260904014333 | 83 | 120 | 0.0 | 2.6 | 0.00 | 0.17 | 0.17 | 76 | 1015.2 |
| 20260904013834 | 83 | 126 | 0.9 | 2.6 | 0.00 | 0.17 | 0.17 | 76 | 1015.4 |
| 20260904013317 | 83 | 108 | 0.0 | 1.7 | 0.00 | 0.17 | 0.17 | 75 | 1015.2 |
| 20260904013023 | 83 | 115 | 0.0 | 2.6 | 0.00 | 0.17 | 0.17 | 76 | 1015.1 |
| 20260904012822 | 83 | 113 | 0.0 | 2.6 | 0.00 | 0.17 | 0.17 | 75 | 1015.2 |
| 20260904012326 | 83 | 118 | 0.9 | 2.6 | 0.00 | 0.17 | 0.17 | 76 | 1015.1 |
| 20260904011830 | 83 | 124 | 0.0 | 2.6 | 0.00 | 0.17 | 0.17 | 76 | 1015.1 |
| 20260904011524 | 82 | 122 | 0.9 | 2.6 | 0.00 | 0.17 | 0.17 | 76 | 1015.0 |
| 20260904011333 | 83 | 84 | 0.9 | 2.6 | 0.00 | 0.17 | 0.17 | 76 | 1015.0 |
| 20260904010818 | 82 | 84 | 0.9 | 2.6 | 0.00 | 0.17 | 0.17 | 77 | 1015.0 |
| 20260904010342 | 82 | 104 | 0.9 | 2.6 | 0.00 | 0.17 | 0.17 | 78 | 1014.9 |
| 20260904010010 | 81 | 127 | 0.0 | 0.0 | 0.00 | 0.17 | 0.17 | 79 | 1014.9 |
| 20260904005821 | 81 | 128 | 0.0 | 0.0 | 0.00 | 0.17 | 0.17 | 79 | 1014.9 |
| 20260904005314 | 81 | 167 | 0.0 | 0.0 | 0.00 | 0.17 | 0.17 | 80 | 1014.9 |
| 20260904004826 | 81 | 167 | 0.0 | 0.9 | 0.00 | 0.17 | 0.17 | 80 | 1014.9 |
| 20260904004526 | 81 | 270 | 0.0 | 0.9 | 0.00 | 0.17 | 0.17 | 80 | 1015.0 |
| 20260904004331 | 81 | 270 | 0.0 | 0.9 | 0.00 | 0.17 | 0.17 | 80 | 1014.9 |
| 20260904003816 | 81 | 270 | 0.0 | 0.9 | 0.00 | 0.17 | 0.17 | 81 | 1014.8 |
| 20260904003320 | 80 | 270 | 0.0 | 0.9 | 0.00 | 0.17 | 0.17 | 82 | 1014.9 |
| 20260904003024 | 80 | 270 | 0.0 | 0.0 | 0.00 | 0.17 | 0.17 | 82 | 1014.8 |
| 20260904002824 | 80 | 270 | 0.0 | 0.0 | 0.00 | 0.17 | 0.17 | 82 | 1014.7 |
| 20260904002321 | 80 | 270 | 0.0 | 0.0 | 0.00 | 0.17 | 0.17 | 82 | 1014.8 |
| 20260904001824 | 80 | 270 | 0.0 | 0.0 | 0.00 | 0.17 | 0.17 | 82 | 1014.8 |
| 20260904001509 | 80 | 270 | 0.0 | 0.0 | 0.00 | 0.17 | 0.17 | 81 | 1014.8 |
| 20260904001310 | 80 | 270 | 0.0 | 0.0 | 0.00 | 0.17 | 0.17 | 81 | 1014.8 |
| 20260904000814 | 80 | 270 | 0.0 | 0.0 | 0.00 | 0.17 | 0.17 | 80 | 1014.7 |
| 20260904000318 | 81 | 270 | 0.0 | 0.0 | 0.00 | 0.17 | 0.17 | 80 | 1014.6 |
| 20260904000008 | 80 | 270 | 0.0 | 0.0 | 0.00 | 0.17 | 0.17 | 80 | 1014.6 |
| 20260903235822 | 81 | 270 | 0.0 | 0.0 | 0.00 | 0.17 | 0.17 | 80 | 1014.6 |
| 20260903235347 | 81 | 270 | 0.0 | 0.0 | 0.00 | 0.17 | 0.17 | 80 | 1014.6 |
| 20260903234810 | 81 | 270 | 0.0 | 0.0 | 0.00 | 0.17 | 0.17 | 80 | 1014.6 |
| 20260903234322 | 81 | 270 | 0.0 | 0.0 | 0.00 | 0.17 | 0.17 | 80 | 1014.5 |
| 20260903233814 | 81 | 270 | 0.0 | 0.0 | 0.00 | 0.17 | 0.17 | 80 | 1014.4 |
| 20260903233319 | 81 | 270 | 0.0 | 0.0 | 0.00 | 0.17 | 0.17 | 80 | 1014.5 |
| 20260903233045 | 81 | 270 | 0.0 | 0.0 | 0.00 | 0.17 | 0.17 | 80 | 1014.4 |
| 20260903232823 | 81 | 270 | 0.0 | 0.0 | 0.00 | 0.17 | 0.17 | 80 | 1014.4 |
| 20260903232357 | 81 | 270 | 0.0 | 0.0 | 0.00 | 0.17 | 0.17 | 79 | 1014.5 |
| 20260903231544 | 81 | 270 | 0.0 | 0.9 | 0.00 | 0.17 | 0.17 | 79 | 1014.4 |
| 20260903231329 | 81 | 270 | 0.0 | 0.9 | 0.00 | 0.17 | 0.17 | 78 | 1014.5 |
| 20260903230832 | 81 | 241 | 0.0 | 0.0 | 0.00 | 0.17 | 0.17 | 78 | 1014.5 |
| 20260903230336 | 81 | 241 | 0.0 | 0.0 | 0.00 | 0.17 | 0.17 | 78 | 1014.5 |
| 20260903230008 | 81 | 242 | 0.0 | 0.0 | 0.00 | 0.17 | 0.17 | 78 | 1014.5 |
| 20260903225817 | 82 | 241 | 0.0 | 0.0 | 0.00 | 0.17 | 0.17 | 78 | 1014.5 |
| 20260903225321 | 82 | 241 | 0.0 | 0.0 | 0.00 | 0.17 | 0.17 | 78 | 1014.4 |
| 20260903224824 | 82 | 241 | 0.0 | 0.9 | 0.00 | 0.17 | 0.17 | 78 | 1014.5 |
| 20260903224508 | 81 | 242 | 0.0 | 2.6 | 0.00 | 0.17 | 0.17 | 77 | 1014.6 |
| 20260903224328 | 82 | 242 | 0.0 | 2.6 | 0.00 | 0.17 | 0.17 | 77 | 1014.5 |
| 20260903223829 | 82 | 233 | 0.9 | 1.7 | 0.00 | 0.17 | 0.17 | 77 | 1014.4 |
| 20260903223313 | 82 | 250 | 0.0 | 4.3 | 0.00 | 0.17 | 0.17 | 77 | 1014.3 |
| 20260903223001 | 81 | 238 | 0.9 | 4.3 | 0.00 | 0.17 | 0.17 | 77 | 1014.3 |
| 20260903222813 | 82 | 234 | 1.7 | 4.3 | 0.00 | 0.17 | 0.17 | 76 | 1014.2 |
| 20260903222316 | 82 | 238 | 0.9 | 1.7 | 0.00 | 0.17 | 0.17 | 77 | 1014.1 |
| 20260903221819 | 82 | 232 | 0.0 | 1.7 | 0.00 | 0.17 | 0.17 | 76 | 1014.0 |
| 20260903221548 | 82 | 196 | 0.0 | 1.7 | 0.00 | 0.17 | 0.17 | 77 | 1013.9 |
| 20260903221324 | 83 | 225 | 0.0 | 1.7 | 0.00 | 0.17 | 0.17 | 76 | 1013.9 |
| 20260903220826 | 83 | 217 | 0.0 | 3.5 | 0.00 | 0.17 | 0.17 | 76 | 1013.9 |
| 20260903220330 | 83 | 238 | 0.9 | 4.3 | 0.00 | 0.17 | 0.17 | 75 | 1014.0 |
| 20260903220033 | 83 | 49 | 0.0 | 4.3 | 0.00 | 0.17 | 0.17 | 75 | 1014.0 |
| 20260903215814 | 84 | 224 | 1.7 | 4.3 | 0.00 | 0.17 | 0.17 | 76 | 1014.1 |
| 20260903215317 | 84 | 214 | 0.0 | 1.7 | 0.00 | 0.17 | 0.17 | 77 | 1013.9 |
| 20260903214818 | 85 | 217 | 0.9 | 2.6 | 0.00 | 0.17 | 0.17 | 76 | 1013.8 |
| 20260903214603 | 84 | 212 | 0.0 | 2.6 | 0.00 | 0.17 | 0.17 | 75 | 1013.7 |
| 20260903214323 | 85 | 245 | 0.9 | 2.6 | 0.00 | 0.17 | 0.17 | 74 | 1013.7 |
| 20260903213829 | 86 | 243 | 0.9 | 2.6 | 0.00 | 0.17 | 0.17 | 73 | 1013.7 |
| 20260903213329 | 86 | 248 | 0.0 | 0.9 | 0.00 | 0.17 | 0.17 | 72 | 1013.7 |
| 20260903213035 | 86 | 102 | 0.0 | 0.0 | 0.00 | 0.17 | 0.17 | 72 | 1013.7 |
| 20260903212833 | 87 | 102 | 0.0 | 0.0 | 0.00 | 0.17 | 0.17 | 71 | 1013.8 |
| 20260903212316 | 87 | 102 | 0.0 | 0.0 | 0.00 | 0.17 | 0.17 | 69 | 1013.9 |
| 20260903211821 | 87 | 102 | 0.0 | 0.9 | 0.00 | 0.17 | 0.17 | 68 | 1013.8 |
| 20260903211605 | 86 | 102 | 0.0 | 0.9 | 0.00 | 0.17 | 0.17 | 70 | 1013.7 |
| 20260903211318 | 87 | 102 | 0.0 | 0.9 | 0.00 | 0.17 | 0.17 | 69 | 1013.7 |
| 20260903210823 | 86 | 72 | 0.0 | 0.9 | 0.00 | 0.17 | 0.17 | 71 | 1013.7 |
| 20260903210320 | 86 | 71 | 0.0 | 0.9 | 0.00 | 0.17 | 0.17 | 72 | 1013.6 |
| 20260903210058 | 84 | 71 | 0.0 | 1.7 | 0.00 | 0.17 | 0.17 | 73 | 1013.6 |
| 20260903205823 | 84 | 70 | 0.0 | 1.7 | 0.00 | 0.17 | 0.17 | 72 | 1013.5 |
| 20260903205350 | 83 | 77 | 0.9 | 1.7 | 0.00 | 0.17 | 0.17 | 73 | 1013.3 |
| 20260903204814 | 82 | 47 | 0.0 | 0.9 | 0.00 | 0.17 | 0.17 | 73 | 1013.4 |
| 20260903204510 | 82 | 311 | 0.0 | 0.0 | 0.00 | 0.17 | 0.17 | 78 | 1013.6 |
| 20260903204317 | 82 | 278 | 0.0 | 0.0 | 0.00 | 0.17 | 0.17 | 79 | 1013.7 |
| 20260903203822 | 81 | 5 | 0.0 | 0.0 | 0.00 | 0.17 | 0.17 | 79 | 1013.5 |
| 20260903203327 | 80 | 5 | 0.0 | 0.0 | 0.00 | 0.17 | 0.17 | 78 | 1013.6 |
| 20260903203012 | 80 | 5 | 0.0 | 0.0 | 0.00 | 0.17 | 0.17 | 79 | 1013.5 |
| 20260903202813 | 80 | 5 | 0.0 | 0.0 | 0.00 | 0.17 | 0.17 | 78 | 1013.5 |
| 20260903202312 | 80 | 5 | 0.0 | 0.9 | 0.00 | 0.17 | 0.17 | 80 | 1013.5 |
| 20260903201816 | 80 | 5 | 0.0 | 0.0 | 0.00 | 0.17 | 0.17 | 80 | 1013.6 |
| 20260903201600 | 79 | 5 | 0.0 | 0.9 | 0.00 | 0.17 | 0.17 | 81 | 1013.6 |
| 20260903201315 | 79 | 5 | 0.0 | 0.9 | 0.00 | 0.17 | 0.17 | 81 | 1013.7 |
| 20260903200819 | 79 | 5 | 0.0 | 0.9 | 0.02 | 0.17 | 0.17 | 81 | 1013.7 |
| 20260903200323 | 79 | 349 | 0.0 | 0.9 | 0.12 | 0.17 | 0.17 | 81 | 1013.7 |
| 20260903200116 | 78 | 347 | 0.0 | 0.9 | 0.12 | 0.17 | 0.17 | 81 | 1013.6 |
| 20260903195826 | 79 | 347 | 0.0 | 0.9 | 0.13 | 0.18 | 0.17 | 81 | 1013.6 |
| 20260903195309 | 78 | 335 | 0.0 | 0.9 | 0.15 | 0.18 | 0.17 | 80 | 1013.5 |
| 20260903194822 | 78 | 269 | 0.0 | 2.6 | 0.16 | 0.18 | 0.17 | 79 | 1013.7 |
| 20260903194504 | 78 | 269 | 0.0 | 2.6 | 0.16 | 0.18 | 0.17 | 79 | 1013.7 |
| 20260903194326 | 79 | 252 | 0.9 | 2.6 | 0.16 | 0.18 | 0.17 | 78 | 1013.8 |
| 20260903193809 | 79 | 328 | 0.0 | 0.9 | 0.16 | 0.18 | 0.17 | 79 | 1013.9 |
| 20260903193314 | 79 | 330 | 0.0 | 2.6 | 0.16 | 0.18 | 0.17 | 77 | 1014.2 |
| 20260903193007 | 79 | 341 | 0.0 | 3.5 | 0.16 | 0.18 | 0.17 | 76 | 1014.4 |
| 20260903192818 | 80 | 247 | 0.0 | 3.5 | 0.16 | 0.18 | 0.17 | 78 | 1014.4 |
| 20260903192323 | 80 | 48 | 1.7 | 3.5 | 0.16 | 0.18 | 0.17 | 74 | 1014.6 |
| 20260903191826 | 81 | 30 | 0.0 | 3.5 | 0.16 | 0.18 | 0.17 | 77 | 1014.4 |
| 20260903191512 | 81 | 37 | 0.0 | 3.5 | 0.16 | 0.18 | 0.17 | 74 | 1014.2 |
| 20260903191311 | 82 | 264 | 0.9 | 3.5 | 0.16 | 0.18 | 0.17 | 72 | 1014.2 |
| 20260903190814 | 84 | 210 | 0.0 | 4.3 | 0.14 | 0.16 | 0.15 | 71 | 1014.3 |
| 20260903190315 | 87 | 279 | 0.9 | 4.3 | 0.04 | 0.06 | 0.05 | 70 | 1014.2 |
| 20260903190004 | 88 | 229 | 0.9 | 4.3 | 0.03 | 0.05 | 0.04 | 68 | 1014.2 |
| 20260903185819 | 90 | 80 | 0.9 | 6.1 | 0.03 | 0.31 | 0.04 | 68 | 1014.1 |
| 20260903185317 | 91 | 159 | 0.9 | 6.1 | 0.01 | 0.29 | 0.02 | 64 | 1013.7 |
| 20260903184820 | 92 | 75 | 0.9 | 4.3 | 0.00 | 0.28 | 0.01 | 60 | 1013.5 |
| 20260903184537 | 92 | 61 | 1.7 | 4.3 | 0.00 | 0.28 | 0.01 | 58 | 1013.7 |
| 20260903184346 | 93 | 70 | 2.6 | 4.3 | 0.00 | 0.28 | 0.01 | 57 | 1013.8 |
| 20260903183822 | 94 | 107 | 0.9 | 3.5 | 0.00 | 0.28 | 0.01 | 54 | 1013.7 |
| 20260903183327 | 95 | 57 | 0.9 | 3.5 | 0.00 | 0.28 | 0.01 | 53 | 1013.7 |
| 20260903183001 | 95 | 229 | 0.0 | 3.5 | 0.00 | 0.28 | 0.01 | 54 | 1013.6 |
| 20260903182326 | 93 | 90 | 1.7 | 3.5 | 0.00 | 0.28 | 0.01 | 55 | 1013.7 |